Content
SEND FEEDBACK

Daily
Averages
Monthly
Summary
United States of America

ARCATA, CALIFORNIA


Home > North America > United States > California
Elevation: 217 feet     Latitude: 40 58N     Longitude: 124 06W

WEATHER
 
SELECT A DAY
Number of Records: 240,987;   Date Range: 1/1/95 - 9/19/14
 
SHARE

PRINT THIS DATA

[ ← Previous Day ]
WEATHER ALMANAC - MARCH 14, 2013
[ Next Day → ]
[ °C ]   °F
Weather ElementAverageHighLow
Temperature45.7 °F54 °F (4:53 pm)41 °F (11:53 pm)
Dewpoint44 °F46.9 °F (10:53 am)41 °F (10:53 pm)
Humidity94.4 %100 % (12:34 am)69 % (4:53 pm)
Barometer30.22 in30.28 in (11:53 am)30.14 in (5:14 am)
Wind Speed2.5 mph13.8 mph (11:18 am)
Wind Gust20.7 mph (11:18 am)
Weather ElementAverage
Visibility4.9 mi
Wind DirectionE (87.2 °)

Weather ElementTotal
Precipitation0.01 in
Heating Degree Days17.5 (Base 65)
Averaged from 50 records on March 14, 2013
WEATHER CONDITIONS BREAKOUT
WIND DIRECTION BREAKOUT
WEATHER BY HOUR - MARCH 14, 2013
[ °C ]   °F
Local TimeTemperatureDewpointHumidityBarometerVisibilityWind DirectionWind SpeedGust SpeedPrecipitationEventsConditions
12:34 AM42.8 °F42.8 °F100 %30.15 in0.8 miCalmOvercast
12:53 AM43.0 °F43.0 °F100 %30.17 in0.8 miCalmMist
1:46 AM42.8 °F42.8 °F100 %30.15 in0.2 miCalmFogFog
1:53 AM43.0 °F43.0 °F100 %30.18 in0.5 miCalmFogFog
2:03 AM42.8 °F42.8 °F100 %30.15 in0.2 miCalmFogFog
2:15 AM42.8 °F42.8 °F100 %30.16 in0.2 miCalmFogFog
2:27 AM42.8 °F42.8 °F100 %30.16 in0.2 miCalmFogFog
2:53 AM43.0 °F43.0 °F100 %30.19 in0.2 miCalmFogFog
3:04 AM42.8 °F42.8 °F100 %30.15 in0.5 miCalmFogFog
3:53 AM43.0 °F43.0 °F100 %30.15 in0.2 miCalmFogFog
4:53 AM43.0 °F43.0 °F100 %30.15 in0.2 miSouth (170°)3.5 mphFogFog
5:14 AM44.6 °F44.6 °F100 %30.14 in0.2 miCalmFogFog
5:24 AM44.6 °F44.6 °F100 %30.14 in0.2 miCalmFogFog
5:53 AM44.1 °F44.1 °F100 %30.17 in0.2 miCalm0.01 inFogFog
6:06 AM44.6 °F44.6 °F100 %30.15 in0.2 miCalmFogFog
6:38 AM44.6 °F44.6 °F100 %30.16 in0.2 miSW (220°)4.6 mphFogFog
6:53 AM44.1 °F44.1 °F100 %30.18 in0.2 miCalmFogFog
7:17 AM44.6 °F44.6 °F100 %30.16 in0.2 miCalmFogFog
7:53 AM43.0 °F43.0 °F100 %30.21 in0.2 miNW (320°)5.8 mphFogFog
8:16 AM42.8 °F42.8 °F100 %30.22 in0.2 miWNW (290°)4.6 mphFogFog
8:24 AM42.8 °F42.8 °F100 %30.21 in0.8 miCalmMist
8:44 AM44.6 °F42.8 °F93 %30.22 in1.0 miCalmOvercast
8:53 AM43.0 °F43.0 °F100 %30.25 in1.2 miCalmOvercast
9:20 AM44.6 °F44.6 °F100 %30.23 in2.5 miCalmOvercast
9:30 AM44.6 °F44.6 °F100 %30.24 in3.0 miESE (110°)3.5 mphOvercast
9:53 AM45.0 °F45.0 °F100 %30.23 in10.0 miESE (110°)5.8 mphOvercast
10:36 AM46.4 °F46.4 °F100 %30.19 in10.0 miESE (110°)9.2 mphScattered Clouds
10:53 AM48.0 °F46.9 °F96 %30.20 in10.0 miEast (100°)5.8 mphClear
11:18 AM46.4 °F46.4 °F100 %30.23 in10.0 miWest (280°)13.8 mph20.7 mphScattered Clouds
11:24 AM46.4 °F44.6 °F93 %30.23 in9.0 miWest (280°)11.5 mphMostly Cloudy
11:53 AM46.0 °F45.0 °F96 %30.28 in10.0 miNW (310°)3.5 mphOvercast
12:10 PM46.4 °F44.6 °F93 %30.27 in10.0 miCalmOvercast
12:30 PM48.2 °F46.4 °F93 %30.26 in10.0 miEast (80°)4.6 mphMostly Cloudy
12:40 PM48.2 °F46.4 °F93 %30.26 in10.0 miENE (70°)4.6 mphScattered Clouds
12:53 PM48.9 °F45.0 °F86 %30.28 in10.0 miEast (100°)5.8 mphClear
1:01 PM48.2 °F44.6 °F87 %30.27 in10.0 miESE (120°)3.5 mphScattered Clouds
1:06 PM48.2 °F44.6 °F87 %30.27 in10.0 miEast (100°)4.6 mphMostly Cloudy
1:13 PM50.0 °F46.4 °F87 %30.27 in10.0 miESE (120°)3.5 mphMostly Cloudy
1:23 PM48.2 °F44.6 °F87 %30.27 in10.0 miSE (140°)3.5 mphScattered Clouds
1:53 PM52.0 °F44.1 °F74 %30.27 in10.0 miCalmClear
2:53 PM53.1 °F45.0 °F74 %30.25 in10.0 miWest (270°)4.6 mphClear
3:53 PM53.1 °F44.1 °F71 %30.25 in10.0 miWNW (290°)5.8 mphClear
4:53 PM54.0 °F44.1 °F69 %30.25 in10.0 miCalmClear
5:53 PM51.1 °F44.1 °F77 %30.26 in10.0 miNorth (350°)3.5 mphClear
6:53 PM50.0 °F44.1 °F80 %30.25 in10.0 miNW (310°)3.5 mphClear
7:53 PM46.9 °F45.0 °F93 %30.26 in5.0 miCalmClear
8:53 PM44.1 °F43.0 °F96 %30.26 in5.0 miCalmClear
9:53 PM43.0 °F42.1 °F97 %30.26 in7.0 miCalmClear
10:53 PM42.1 °F41.0 °F96 %30.27 in10.0 miCalmClear
11:53 PM41.0 °F41.0 °F100 %30.27 in7.0 miESE (110°)4.6 mphClear
Hourly data recorded from KACV, located miles away from Arcata, California







STORIES FROM OUR PARTNERS